M0SWV Weather Reports


time (UTC)temp
C
wind
direction
speed
KPH
gust
KPH
rain 1hr
cm
rain 24hr
cm
rain mn
cm
humidity
%
barometer
mb
20260502220034 9 0 0.0 0.0 0.03 1.02 1.02 96 1012.2
20260502214530 10 0 0.0 0.0 0.03 1.02 1.02 96 1012.5
20260502213040 10 0 0.0 0.0 0.00 1.02 1.02 96 1012.5
20260502211532 10 0 0.0 0.0 0.00 1.02 1.02 95 1012.5
20260502210035 10 0 0.0 0.0 0.00 0.99 0.99 95 1012.6
20260502204530 10 0 0.0 0.0 0.00 0.99 0.99 95 1012.8
20260502203036 10 0 0.0 1.6 0.00 0.99 0.99 95 1012.9
20260502201532 10 0 0.0 0.0 0.05 0.99 0.99 95 1012.9
20260502200034 10 86 0.0 1.6 0.18 0.99 0.99 95 1012.8
20260502194534 10 0 0.0 0.0 0.23 0.97 0.97 95 1012.7
20260502193030 10 0 0.0 1.6 0.33 0.97 0.97 94 1012.9
20260502191531 10 0 0.0 3.2 0.30 0.94 0.94 94 1012.9
20260502190034 10 60 0.0 8.0 0.25 0.81 0.81 94 1013.0
20260502184529 10 344 1.6 6.4 0.18 0.71 0.71 94 1013.1
20260502183033 10 0 0.0 4.8 0.18 0.64 0.64 95 1013.1
20260502181543 10 318 1.6 6.4 0.23 0.58 0.58 94 1012.9
20260502163032 12 267 3.2 6.4 0.05 0.08 0.08 87 1014.5
20260502161528 12 248 4.8 6.4 0.00 0.03 0.03 84 1014.5
20260502151529 15 0 0.0 0.0 0.00 0.00 0.00 69 1014.3
20260502123029 16 238 3.2 8.0 0.00 0.05 0.00 68 1016.6
20260502121531 16 164 3.2 9.7 0.00 0.05 0.00 68 1016.7
20260502114528 15 192 3.2 16.1 0.00 0.05 0.00 70 1017.2
20260502113032 16 231 3.2 11.3 0.00 0.05 0.00 71 1017.3
20260502111529 15 247 8.0 14.5 0.00 0.05 0.00 69 1017.4
20260502110030 15 248 4.8 14.5 0.00 0.05 0.00 74 1017.3
20260502104535 14 0 0.0 17.7 0.00 0.05 0.00 73 1017.5
20260502103028 13 0 0.0 9.7 0.00 0.05 0.00 76 1017.9
20260502101537 13 0 1.6 4.8 0.00 0.05 0.00 75 1017.9
20260502091532 13 139 3.2 9.7 0.00 0.05 0.00 77 1018.2
20260502071535 8 0 0.0 0.0 0.00 0.05 0.00 96 1019.1
20260502070030 7 0 0.0 0.0 0.00 0.05 0.00 95 1019.0
20260502064549 7 238 0.0 4.8 0.00 0.05 0.00 96 1019.2
20260502063035 7 0 0.0 0.0 0.00 0.05 0.00 96 1019.3
20260502061530 6 0 0.0 0.0 0.00 0.05 0.00 97 1019.2
20260502060030 5 0 0.0 0.0 0.00 0.05 0.00 96 1019.0
20260502054531 5 0 0.0 0.0 0.00 0.05 0.00 96 1018.7
20260502053029 6 0 0.0 0.0 0.00 0.03 0.00 96 1019.0
20260502051532 5 0 0.0 0.0 0.00 0.03 0.00 96 1019.1
20260502050030 5 0 0.0 0.0 0.00 0.03 0.00 96 1019.1
20260502044538 5 0 0.0 0.0 0.00 0.03 0.00 96 1018.9
20260502043031 5 0 0.0 0.0 0.00 0.03 0.00 96 1019.0
20260502041534 6 0 0.0 0.0 0.00 0.03 0.00 96 1018.9
20260502040040 6 0 0.0 0.0 0.00 0.03 0.00 96 1019.2
20260502034534 6 0 0.0 0.0 0.00 0.03 0.00 96 1019.4
20260502033029 6 0 0.0 0.0 0.00 0.03 0.00 96 1019.5
20260502031529 6 0 0.0 1.6 0.00 0.03 0.00 95 1019.4
20260502030030 5 0 0.0 1.6 0.00 0.03 0.00 95 1019.5
20260502024531 6 0 0.0 1.6 0.00 0.03 0.00 93 1019.6
20260502023037 7 0 0.0 4.8 0.00 0.03 0.00 95 1019.6
20260502021530 6 0 0.0 0.0 0.00 0.03 0.00 94 1019.8
20260502020032 6 0 0.0 0.0 0.00 0.03 0.00 94 1019.8
20260502014542 7 0 0.0 0.0 0.00 0.03 0.00 93 1019.9
20260502013032 7 0 0.0 0.0 0.00 0.03 0.00 93 1019.9
20260502011530 7 0 0.0 0.0 0.00 0.03 0.00 93 1020.1
20260502010034 8 0 0.0 0.0 0.00 0.03 0.00 93 1020.2
20260502004534 8 0 0.0 0.0 0.00 0.03 0.00 93 1020.5
20260502003032 8 0 0.0 0.0 0.00 0.03 0.00 93 1020.6
20260502001549 8 0 0.0 0.0 0.00 0.03 0.00 93 1020.6
20260502000029 8 0 0.0 0.0 0.00 0.03 0.00 93 1020.7
20260501234531 8 0 0.0 0.0 0.00 0.03 0.00 91 1021.0
20260501233031 8 0 0.0 0.0 0.00 0.03 0.00 92 1020.9
20260501231529 8 256 0.0 0.0 0.00 0.03 0.00 92 1021.0
20260501230032 8 0 0.0 0.0 0.00 0.03 0.00 91 1020.9
20260501224530 8 0 0.0 1.6 0.00 0.03 0.03 89 1020.9
20260501223028 9 0 0.0 1.6 0.00 0.03 0.03 90 1020.8
20260501221532 9 0 0.0 1.6 0.00 0.03 0.03 92 1020.8